GPS BIII-3 (PRN 23)

Last updated on Tue Jul 01 2025 00:03:14 GMT+0000 (Coordinated Universal Time)

1 45854U 20041A 25180.98809075 -.00000088 00000+0 00000+0 0 9990 2 45854 56.4266 42.6387 0053938 199.0645 344.9193 2.00566375 36971
UTC large
Height (km)
Speed (km/s)
/
Latitude / Longitude
Inclination (degrees)
Orbital Period (minutes)
Azimuth
Elevation
Range (km)
Doppler Factor

Next 0 passes for location: London (51.5072 / 0.1276)

Sorry there are no passes over London.